www.pogodaiklimat.ru

Погода и климат >> Архив погоды >> Бангладеш >> Монгла


ПОГОДА в Монгле

  • Прогноз погоды в Монгле
  • Монитор погоды в Монгле

АРХИВ ПОГОДЫ в Монгле

Время (UTC), дата Ветер
(напр.,м/с)
 
Видим.   Явления Облачность Т
(С)
Тd
(С)
f
(%)
Тe
(С)
Тes
(С)
Комфортность P
(гПа)
Po
(гПа)
Тmin
(С)
Tmax
(С)
R
(мм)
R24
(мм)
S
(см)
06 13.09 Ю 1 8000 м 8/5 480 м
[Sc As trans]
+32.0 +27.0 75 +50 +58 опасность
перегрева
1007.7 1007.5
12 13.09 Ю 2 7000 м 8/6 480 м
[Sc diur, vesp Ac trans]
+29.8 +27.0 85 +47 +47 опасность
перегрева
1005.6 1005.4 +32.1
18 13.09 штиль 0 5000 м 5/0
[Ac trans Ci fib]
+27.8 +26.0 90 +42 +42 опасность
перегрева
1007.6 1007.4
00 14.09 Ю 1 5000 м 8/5 480 м
[Sc diur, vesp As trans]
+27.2 +27.0 99 +43 +43 опасность
перегрева
1006.9 1006.7
06 14.09 штиль 0 8000 м 8/8 500 м
[Sc diur, vesp]
+31.9 +27.0 75 +50 +55 опасность
перегрева
1006.9 1006.7
12 14.09 штиль 0 6000 м в посл. час дождь 8/6 480 м
[Cb calv As trans]
+28.2 +26.0 88 +42 +42 опасность
перегрева
1005.4 1005.2 +33.2 4
18 14.09 штиль 0 5000 м ясно +27.6 +27.0 97 +43 +43 опасность
перегрева
1007.6 1007.4
00 15.09 штиль 0 5000 м 4/4 480 м
[Sc diur, vesp]
+27.2 +27.0 99 +43 +43 опасность
перегрева
1005.9 1005.7
06 15.09 штиль 0 8000 м 9/8 480 м
[Sc diur, vesp As trans]
+33.2 +27.0 70 +51 +55 опасность
перегрева
1006.0 1005.8
18 15.09 штиль 0 5000 м 5/0
[Cs]
+28.0 +27.0 94 +44 +44 опасность
перегрева
1006.3 1006.1
00 16.09 0 н/о +27.3 1005.2 1005.0
06 16.09 штиль 0 8000 м 5/5 500 м
[Sc diur, vesp Ci fib]
+33.8 +27.0 68 +52 +65 опасность
перегрева
1005.3 1005.1
12 16.09 Ю 1 6000 м 8/6 480 м
[Sc diur, vesp As trans]
+30.5 +27.0 82 +48 +48 опасность
перегрева
1002.6 1002.4 +34.5
18 16.09 штиль 0 5000 м 6/0
[Ac trans]
+28.0 +27.0 94 +44 +44 опасность
перегрева
1006.5 1006.3
00 17.09 штиль 0 5000 м ясно +26.7 +26.7 100 +41 +41 опасность
перегрева
1005.6 1005.4
06 17.09 Ю 1 8000 м 4/4 750 м
[Cu hum]
+34.0 +26.0 63 +50 +63 опасность
перегрева
1007.5 1007.3
12 17.09 ЮВ 1 6000 м 3/0
[Ac trans]
+31.0 +25.0 70 +44 +44 опасность
перегрева
1005.6 1005.4 +34.8
18 17.09 штиль 0 5000 м ясно +28.0 +27.0 94 +44 +44 опасность
перегрева
1007.7 1007.5
00 18.09 штиль 0 5000 м 3/0
[Ac trans]
+27.0 +27.0 100 +42 +42 опасность
перегрева
1007.9 1007.7
06 18.09 В 1 8000 м 6/6 500 м
[Sc diur, vesp Ac trans Ci fib]
+34.6 +27.0 65 +53 +62 опасность
перегрева
1006.2 1009.0
12 18.09 штиль 0 6000 м {гроза, дождь} 6/4 750 м
[Cu hum Ac trans Cs]
+28.8 +26.0 85 +43 +43 опасность
перегрева
1007.3 1007.1 +34.6 0.2
18 18.09 штиль 0 5000 м ясно +27.6 +27.0 97 +43 +43 опасность
перегрева
1010.0 1009.8
00 19.09 штиль 0 5000 м ясно +26.6 +26.6 100 +41 +41 опасность
перегрева
1009.3 1009.1
06 19.09 В 1 8000 м 3/3 750 м
[Cu hum]
+34.2 +26.0 62 +50 +66 опасность
перегрева
1009.3 1009.1
12 19.09 штиль 0 6000 м 4/4 750 м
[Cb calv]
+30.6 +27.0 81 +48 +48 опасность
перегрева
1006.6 1006.4 +35.0
18 19.09 штиль 0 5000 м ясно +28.4 +26.0 87 +43 +43 опасность
перегрева
1009.6 1009.4
00 20.09 штиль 0 5000 м 6/6 480 м
[Sc diur, vesp]
+27.4 +27.0 98 +43 +43 опасность
перегрева
1008.2 1008.0

 

Местоположение метеостанции Монгла (Бангладеш): широта 22.60 долгота 89.50 высота над уровнем моря 6 м.

В архиве по умолчанию представлена погода в Монгле за последнюю неделю. Архивные данные за месяц целиком и за предыдущие месяцы, начиная с января 2011 года, Вы можете получить, выбрав интересующий диапазон дат из раскрывающегося списка и нажав кнопку "Ввод!".


*Определитесь, кто Вы:
робот инопланетянин человек

Внимание! Время в таблицах - всемирное. Для получения местного времени необходимо прибавить поправку, которая равна 6.5 ч.

Смотрите также архив погоды в соседних городах и на ближайших метеорологических станциях:

Погода в Кхулне (Бангладеш) (20 км)
Погода в Саткхире (Бангладеш) (45 км)
Погода в Гопалгандж-Садаре (Бангладеш) (56 км)
Погода в Бейсирхэте (Западная Бенгалия, Индия) (65 км)
Погода в Джессоре (Бангладеш) (73 км)
Погода в Патуакхали (Бангладеш) (90 км)
Погода в Барисале (Бангладеш) (91 км)
Погода в Каннинге (Западная Бенгалия, Индия) (94 км)
Погода в Мадарипуре (Бангладеш) (94 км)
Погода в Кепупаре (Бангладеш) (102 км)

Пояснения к столбцам:

Ветер - указаны скорость ветра в м/с - средняя за 10 мин, порывы в срок и между сроками (в фигурных скобках) и направление, откуда дует ветер: С - северный, СВ - северо-восточный, В - восточный, ЮВ - юго-восточный, Ю - южный, ЮЗ - юго-западный, З - западный, СЗ - северо-западный.
Видимость - горизонтальная дальность видимости в метрах или километрах. При видимости от 1 до 10 км при отсутствии осадков обычно наблюдается дымка, при ухудшении видимости до 1 км и менее - туман. В сухую погоду видимость может ухудшаться дымом, пылью или мглою.
Явления - указаны атмосферные явления, наблюдавшиеся в срок или в последний час перед сроком; фигурными скобками обозначены явления, наблюдавшиеся между сроками (за 1-3 часа до срока); квадратными скобками обозначены град или гололедные отложения с указанием их диаметра в мм.
Облачность - указаны через наклонную черту общая и нижняя облачность в баллах и высота нижней границы облаков в метрах; квадратными скобками обозначены формы облаков: Ci - перистые, Cs - перисто-слоистые, Cc - перисто-кучевые, Ac - высококучевые, As - высокослоистые, Sc - слоисто-кучевые, Ns - слоисто-дождевые, Cu - кучевые, Cb - кучево-дождевые. Подробнее классификацию облаков см. в Атласе облаков (PDF).
T - Температура воздуха - температура, измеренная на высоте 2 м над землей.
Td - Температура точки росы - температура, при понижении до которой содержащийся в воздухе водяной пар достигнет насыщения.
f - Относительная влажность воздуха - влажноcть воздуха, измеренная на высоте 2 м над землей.
Te - Эффективная температура - температура, которую ощущает одетый по сезону человек в тени. Характеристика душности погоды. При расчете учитывается влияние влажности воздуха и скорости ветра на теплоощущения человека.
Tes - Эффективная температура на солнце - температура, которую ощущает человек, с поправкой на солнечный нагрев. Характеристика знойности погоды. Зависит от высоты солнца над горизонтом, облачности и скорости ветра. Ночью, в пасмурную погоду, а также при ветре 12 м/с и более поправка равна нулю.
P - Атмосферное давление - приведенное к уровню моря атмосферное давление.
Po - Атмосферное давление - измеренное на уровне метеостанции атмосферное давление.
Tmin - Минимальная температура - минимум температуры воздуха на высоте 2 м над землей.
Tmax - Максимальная температура - максимум температуры воздуха на высоте 2 м над землей.
R - Количество осадков - Количество выпавших осадков за период времени, мм. При наведении курсора мыши на число - период времени, за который выпало указанное количество осадков.
R24 - Количество осадков - Количество выпавших осадков за 24 часа, мм.
S - Снежный покров - Высота снежного покрова, см. При наведении курсора мыши на число - состояние снежного покрова и степень покрытия местности в баллах.